Regional Weather Roundup
Issued by NWS

Home | Current Version | Previous Version | Graphics & Text | Print | Product List | Glossary On
Versions: 1 2 3 4 5 6 7 8 9 10 11 12 13 14 15 16 17 18 19 20 21 22 23 24 25 26 27 28 29 30 31 32 33 34 35 36 37 38 39 40 41 42 43 44 45 46 47 48 49 50
033
ASUS43 KOAX 240402
RWRNE

WEATHER ROUNDUP FOR NEBRASKA
NATIONAL WEATHER SERVICE OMAHA NE
1000 PM CST MON JAN 23 2017

NOTES: SATELLITE DATA IS BEING USED TO AUGMENT CLOUD COVER ABOVE
       12000 FEET.
       "FAIR" INDICATES FEW OR NO CLOUDS BELOW 12,000 FEET WITH NO
       SIGNIFICANT WEATHER AND/OR OBSTRUCTIONS TO VISIBILITY.

  * THESE STATIONS DO NOT REPORT WEATHER SUCH AS RAIN...SNOW OR FOG.

NEZ001>004-019>022-054>056-240500-
NEBRASKA PANHANDLE

CITY           SKY/WX    TMP DP  RH WIND       PRES   REMARKS
SCOTTSBLUFF    CLOUDY    33  27  78 NE17G26   29.57S WCI  22
ALLIANCE       CLOUDY    28  26  92 NE8       29.60R WCI  20
CHADRON        FOG       24  23  96 NE13      29.67F VSB 3/4 WCI  12
KIMBALL        CLOUDY    35  31  87 E9        29.54S WCI  27
SIDNEY         CLOUDY    35  29  78 NE7       29.56S WCI  29
$$

NEZ057>060-069>072-079>082-240500-
SOUTHWEST NEBRASKA

CITY           SKY/WX    TMP DP  RH WIND       PRES   REMARKS
NORTH PLATTE   PTCLDY    34  30  85 SE8       29.62R WCI  27
IMPERIAL       CLOUDY    33  28  81 E8        29.56S WCI  26
LEXINGTON      FOG       33  32  96 E12       29.64S VSB 1/2 WCI  24
MCCOOK         CLEAR     37  31  78 E10       29.57F WCI  30
OGALLALA       CLOUDY    35  30  82 CALM      29.59S
$$

NEZ005>010-023>029-035>040-094-240500-
NORTH CENTRAL NEBRASKA

CITY           SKY/WX    TMP DP  RH WIND       PRES   REMARKS
VALENTINE      CLOUDY    29  26  89 E8        29.68S WCI  21
AINSWORTH      FOG       32  32 100 SE14      29.67F VSB 3/4 WCI  22
BROKEN BOW     FOG       31  31 100 E12G25    29.67S VSB 1/4 WCI  22
O`NEILL        CLOUDY    32  32  98 SE10G16   29.73F WCI  24
ORD            CLOUDY    32  29  88 E10       29.71S FOG     WCI  24
THEDFORD       FOG       32  32  99 E9        29.66R VSB 1/2 WCI  24
$$

NEZ041-046>049-061>064-073>077-083>087-240500-
SOUTH CENTRAL NEBRASKA

CITY           SKY/WX    TMP DP  RH WIND       PRES   REMARKS
GRAND ISLAND   CLOUDY    32  32 100 E13       29.73R FOG     WCI  22
AURORA         CLOUDY    32  32 100 SE15G21   29.72F FOG     WCI  22
HASTINGS       FOG       32  31  96 SE13G22   29.70S VSB 1/2 WCI  22
HEBRON         CLOUDY    32  32 100 E7        29.73F FOG     WCI  26
HOLDREGE       MOCLDY    32  31  95 SE12      29.63F WCI  23
KEARNEY *      CLOUDY    34  30  86 E12       29.68R WCI  25
YORK           PTCLDY    32  32 100 SE15      29.75S FOG     WCI  22
$$

NEZ011>018-030>034-042>045-240500-
NORTHEAST NEBRASKA

CITY           SKY/WX    TMP DP  RH WIND       PRES   REMARKS
NORFOLK        CLOUDY    30  27  88 E13       29.77S FOG     WCI  20
ALBION         CLOUDY    32  30  90 SE15      29.76S FOG     WCI  22
BLAIR          CLOUDY    32  30  92 SE8       29.82S FOG     WCI  25
FREMONT        CLOUDY    32  30  93 E8        29.82F WCI  25
TEKAMAH        CLOUDY    32  29  88 SE9       29.84S WCI  24
WAYNE          CLOUDY    32  30  93 SE7       29.80F WCI  26
$$

NEZ050>053-065>068-078-088>093-240500-
SOUTHEAST NEBRASKA

CITY           SKY/WX    TMP DP  RH WIND       PRES   REMARKS
LINCOLN        MOCLDY    32  29  88 E8        29.81F WCI  25
OMAHA EPPLEY   CLOUDY    32  27  81 SE10      29.84S WCI  24
BEATRICE       CLOUDY    33  32  96 E8        29.77S FOG     WCI  26
FALLS CITY     CLOUDY    29  27  92 E8        29.82S WCI  21
NEBRASKA CITY  CLOUDY    31  30  99 E7        29.83R WCI  24
PLATTSMOUTH    PTCLDY    31  27  87 E9        29.82S WCI  22
$$

NEZ044-045-051>053-067-240500-
OMAHA AREA

CITY           SKY/WX    TMP DP  RH WIND       PRES   REMARKS
OMAHA EPPLEY   CLOUDY    32  27  81 SE10      29.84S WCI  24
BLAIR          CLOUDY    32  30  92 SE8       29.82S FOG     WCI  25
FREMONT        CLOUDY    32  30  93 E8        29.82F WCI  25
MILLARD        CLOUDY    33  31  89 SE9       29.83S WCI  26
OFFUTT AFB     CLOUDY    32  32 100 E8        29.83S WCI  24
PLATTSMOUTH    PTCLDY    31  27  87 E9        29.82S WCI  22
WAHOO          CLOUDY    32  30  92 SE10      29.82S WCI  23
$$




USA.gov is the U.S. government's official web portal to all federal, state and local government web resources and services.